This demonstration page uses our WeatherBlox Daily Observations layout. Learn more.

Left ArrowRight Arrow

44.89941, -97.11507

Hourly Observations for August 13, 2022

Temp ( °F °C ) Dew Point ( °F °C ) Humidity (%) Winds ( mph kmh ) Pressure ( in mb ) Visibility ( mi km ) Precip ( " mm )
12:53 am 00:53 Cloudy 71 21.7 70 21.1 96 96 N 8 13 29.92 1013 10 16 0.00 0.00
1:39 am 01:39 Cloudy with Mist and Fog 71 21.7 69 20.6 93 93 N 10 17 29.90 1013 6 10 0.01 0.13
1:53 am 01:53 Cloudy 69 20.6 68 20 96 96 N 14 22 29.93 1014 7 11 0.01 0.13
3:01 am 03:01 Cloudy 69 20.6 67 19.4 93 93 N 8 13 29.92 1013 10 16 0.00 0.00
3:48 am 03:48 Cloudy 68 20 66 19 94 94 N 9 15 29.94 1014 10 16 0.00 0.00
3:53 am 03:53 Cloudy 68 20 67 19.4 96 96 N 10 17 29.95 1014 10 16 0.00 0.00
4:16 am 04:16 Cloudy 68 20 66 18.9 93 93 N 9 15 29.94 1014 10 16 0.00 0.00
4:53 am 04:53 Cloudy 68 20 66 18.9 93 93 N 8 13 29.96 1015 10 16 0.00 0.00
5:53 am 05:53 Cloudy 67 19.4 65 18.3 93 93 N 10 17 29.98 1015 10 16 0.00 0.00
6:01 am 06:01 Cloudy 67 19.4 65 18.3 93 93 N 9 15 29.96 1014 10 16 0.00 0.00
6:53 am 06:53 Cloudy 67 19.4 65 18.3 93 93 N 8 13 30.00 1016 9 14 0.00 0.00
7:53 am 07:53 Cloudy 67 19.4 63 17.2 87 87 N 10 17 30.01 1016 10 16 0.00 0.00
8:04 am 08:04 Cloudy 67 19.4 63 17.2 87 87 N 10 17 29.99 1016 10 16 0.00 0.00
8:53 am 08:53 Cloudy 67 19.4 63 17.2 87 87 N 8 13 30.04 1017 10 16 0.00 0.00
9:53 am 09:53 Cloudy 67 19.4 62 16.7 84 84 N 8 13 30.05 1018 10 16 0.00 0.00
10:07 am 10:07 Cloudy 67 19.4 62 16.7 84 84 N 10 17 30.02 1017 10 16 0.00 0.00
10:53 am 10:53 Cloudy 68 20 63 17.2 84 84 N 12 19 30.05 1018 10 16 0.00 0.00
11:09 am 11:09 Cloudy 68 20 63 17.2 84 84 N 14 22 30.02 1017 10 16 0.00 0.00
11:31 am 11:31 Cloudy 69 20.6 62 16.7 78 78 N 13 20 30.01 1016 10 16 0.00 0.00
11:53 am 11:53 Cloudy 70 21.1 62 16.7 76 76 N 9 15 30.05 1018 10 16 0.00 0.00
12:53 pm 12:53 Cloudy 73 22.8 63 17.2 71 71 NE 8 13 30.04 1017 10 16 0.00 0.00
1:53 pm 13:53 Cloudy 73 22.8 63 17.2 71 71 NNE 9 15 30.04 1017 10 16 0.00 0.00
3:11 pm 15:11 Mostly Cloudy 76 24.4 63 17.2 64 64 NNE 7 11 29.99 1016 10 16 0.00 0.00
3:45 pm 15:45 Cloudy 74 23.3 63 17.2 69 69 NNE 10 17 30.00 1016 10 16 0.00 0.00
3:53 pm 15:53 Mostly Cloudy 75 23.9 64 17.8 69 69 N 8 13 30.05 1018 10 16 0.00 0.00
4:40 pm 16:40 Partly Cloudy 76 24.4 63 17.2 64 64 N 7 11 29.99 1016 10 16 0.00 0.00
4:53 pm 16:53 Mostly Cloudy 75 23.9 63 17.2 66 66 ENE 8 13 30.04 1017 10 16 0.00 0.00
5:53 pm 17:53 Partly Cloudy 77 25 63 17.2 62 62 NE 8 13 30.03 1017 10 16 0.00 0.00
6:53 pm 18:53 Sunny 75 23.9 62 16.7 64 64 NE 6 9 30.01 1016 10 16 0.00 0.00
7:53 pm 19:53 Sunny 73 22.8 63 17.2 71 71 ENE 7 11 30.01 1016 10 16 0.00 0.00
8:53 pm 20:53 Clear 68 20 62 16.7 81 81 Calm 30.02 1017 10 16 0.00 0.00
9:53 pm 21:53 Clear 67 19.4 61 16.1 81 81 Calm 30.03 1017 10 16 0.00 0.00
10:53 pm 22:53 Clear 66 18.9 62 16.7 87 87 ESE 6 9 30.04 1017 10 16 0.00 0.00
11:53 pm 23:53 Clear 65 18.3 62 16.7 90 90 ESE 5 7 30.04 1017 10 16 0.00 0.00

Powered by AerisWeather